Location: Gu�tanj
(46.5431°N, 14.9692°E)
Time: 17:50:51
(UTC+00:00)

Cosmos 1777 Rocket - Pass Details

Date: 03 March 2021
Orbit: 759 x 775 km, 74.0° (Epoch: 15 April)

Event Time Altitude Azimuth Distance (km) Brightness Sun altitude
Rises 18:28:10 0° 340° (NNW) 3,249 7.7 -17.8°
Reaches altitude 10° 18:30:35 10° 344° (NNW) 2,316 6.8 -18.2°
Maximum altitude 18:35:48 62° 65° (ENE) 862 4.0 -19.1°
Enters shadow 18:38:02 33° 133° (SE) 1,264 4.7 -19.5°
